Year,Month,Day,Hour,Minute,Value (Times are PST for temperature in C)
2023,03,28,08,03,7.80
2023,03,28,08,04,7.80
2023,03,28,08,05,7.80
2023,03,28,08,06,7.90
2023,03,28,08,07,7.90
2023,03,28,08,08,7.90
2023,03,28,08,09,8.00
2023,03,28,08,10,8.00
2023,03,28,08,11,8.00
2023,03,28,08,12,8.10
2023,03,28,08,13,8.10
2023,03,28,08,14,8.10
2023,03,28,08,15,8.20
2023,03,28,08,16,8.20
2023,03,28,08,17,8.20
2023,03,28,08,18,8.20
2023,03,28,08,19,8.30
2023,03,28,08,20,8.30
2023,03,28,08,21,8.30
2023,03,28,08,22,8.30
2023,03,28,08,23,8.40
2023,03,28,08,24,8.40
2023,03,28,08,25,8.40
2023,03,28,08,26,8.40
2023,03,28,08,27,8.40
2023,03,28,08,28,8.40
2023,03,28,08,29,8.40
2023,03,28,08,30,8.40
2023,03,28,08,31,8.40
2023,03,28,08,32,8.40
2023,03,28,08,33,8.40
2023,03,28,08,34,8.40
2023,03,28,08,35,8.40
2023,03,28,08,36,8.50
2023,03,28,08,37,8.50
2023,03,28,08,38,8.50
2023,03,28,08,39,8.60
2023,03,28,08,40,8.60
2023,03,28,08,41,8.60
2023,03,28,08,42,8.60
2023,03,28,08,43,8.70
2023,03,28,08,44,8.70
2023,03,28,08,45,8.70
2023,03,28,08,46,8.70
2023,03,28,08,47,8.70
2023,03,28,08,48,8.70
2023,03,28,08,49,8.70
2023,03,28,08,50,8.70
2023,03,28,08,51,8.70
2023,03,28,08,52,8.80
2023,03,28,08,53,8.80
2023,03,28,08,54,8.80
2023,03,28,08,55,8.90
2023,03,28,08,56,8.90
2023,03,28,08,57,8.90
2023,03,28,08,58,8.90
2023,03,28,08,59,8.90
2023,03,28,09,00,8.90
2023,03,28,09,01,8.90
2023,03,28,09,02,8.90
2023,03,28,09,03,8.90
2023,03,28,09,04,8.90
2023,03,28,09,05,9.00
2023,03,28,09,06,9.10
2023,03,28,09,07,9.10
2023,03,28,09,08,9.20
2023,03,28,09,09,9.30
2023,03,28,09,10,9.30
2023,03,28,09,11,9.40
2023,03,28,09,12,9.40
2023,03,28,09,13,9.50
2023,03,28,09,14,9.60
2023,03,28,09,15,9.60
2023,03,28,09,16,9.60
2023,03,28,09,17,9.60
2023,03,28,09,18,9.70
2023,03,28,09,19,9.70
2023,03,28,09,20,9.70
2023,03,28,09,21,9.70
2023,03,28,09,22,9.70
2023,03,28,09,23,9.70
2023,03,28,09,24,9.70
2023,03,28,09,25,9.70
2023,03,28,09,26,9.80
2023,03,28,09,27,9.80
2023,03,28,09,28,9.80
2023,03,28,09,29,9.80
2023,03,28,09,30,9.80
2023,03,28,09,31,9.80
2023,03,28,09,32,9.80
2023,03,28,09,33,9.80
2023,03,28,09,34,9.80
2023,03,28,09,35,9.90
2023,03,28,09,36,9.90
2023,03,28,09,37,9.90
2023,03,28,09,38,9.90
2023,03,28,09,39,9.90
2023,03,28,09,40,9.90
2023,03,28,09,41,9.90
2023,03,28,09,42,10.00
2023,03,28,09,43,10.00
2023,03,28,09,44,10.00
2023,03,28,09,45,10.00
2023,03,28,09,46,10.00
2023,03,28,09,47,10.10
2023,03,28,09,48,10.10
2023,03,28,09,49,10.10
2023,03,28,09,50,10.00
2023,03,28,09,51,10.00
2023,03,28,09,52,10.00
2023,03,28,09,53,10.10
2023,03,28,09,54,10.00
2023,03,28,09,55,10.00
2023,03,28,09,56,10.00
2023,03,28,09,57,10.00
2023,03,28,09,58,10.00
2023,03,28,09,59,10.10
2023,03,28,10,00,10.10
2023,03,28,10,01,10.10
2023,03,28,10,02,10.10
2023,03,28,10,03,10.20
2023,03,28,10,04,10.20
2023,03,28,10,05,10.20
2023,03,28,10,06,10.30
2023,03,28,10,07,10.30
2023,03,28,10,08,10.30
2023,03,28,10,09,10.30
2023,03,28,10,10,10.40
2023,03,28,10,11,10.40
2023,03,28,10,12,10.40
2023,03,28,10,13,10.50
2023,03,28,10,14,10.50
2023,03,28,10,15,10.50
2023,03,28,10,16,10.50
2023,03,28,10,17,10.50
2023,03,28,10,18,10.50
2023,03,28,10,19,10.50
2023,03,28,10,20,10.40
2023,03,28,10,21,10.40
2023,03,28,10,22,10.40
2023,03,28,10,23,10.40
2023,03,28,10,24,10.50
2023,03,28,10,25,10.50
2023,03,28,10,26,10.50
2023,03,28,10,27,10.60
2023,03,28,10,28,10.60
2023,03,28,10,29,10.70
2023,03,28,10,30,10.70
2023,03,28,10,31,10.70
2023,03,28,10,32,10.70
2023,03,28,10,33,10.60
2023,03,28,10,34,10.60
2023,03,28,10,35,10.60
2023,03,28,10,36,10.60
2023,03,28,10,37,10.60
2023,03,28,10,38,10.60
2023,03,28,10,39,10.60
2023,03,28,10,40,10.60
2023,03,28,10,41,10.60
2023,03,28,10,42,10.60
2023,03,28,10,43,10.60
2023,03,28,10,44,10.60
2023,03,28,10,45,10.60
2023,03,28,10,46,10.70
2023,03,28,10,47,10.70
2023,03,28,10,48,10.70
2023,03,28,10,49,10.70
2023,03,28,10,50,10.80
2023,03,28,10,51,10.80
2023,03,28,10,52,10.80
2023,03,28,10,53,10.90
2023,03,28,10,54,10.90
2023,03,28,10,55,10.90
2023,03,28,10,56,10.90
2023,03,28,10,57,10.90
2023,03,28,10,58,10.90
2023,03,28,10,59,11.00
2023,03,28,11,00,11.00
2023,03,28,11,01,11.00
2023,03,28,11,02,11.00
2023,03,28,11,03,11.10
2023,03,28,11,04,11.10
2023,03,28,11,05,11.10
2023,03,28,11,06,11.00
2023,03,28,11,07,11.00
2023,03,28,11,08,11.00
2023,03,28,11,09,11.00
2023,03,28,11,10,11.00
2023,03,28,11,11,11.10
2023,03,28,11,12,11.10
2023,03,28,11,13,11.20
2023,03,28,11,14,11.10
2023,03,28,11,15,11.10
2023,03,28,11,16,11.10
2023,03,28,11,17,11.10
2023,03,28,11,18,11.10
2023,03,28,11,19,11.10
2023,03,28,11,20,11.10
2023,03,28,11,21,11.10
2023,03,28,11,22,11.10
2023,03,28,11,23,11.10
2023,03,28,11,24,11.20
2023,03,28,11,25,11.20
2023,03,28,11,26,11.30
2023,03,28,11,27,11.30
2023,03,28,11,28,11.30
2023,03,28,11,29,11.30
2023,03,28,11,30,11.30
2023,03,28,11,31,11.30
2023,03,28,11,32,11.40
2023,03,28,11,33,11.40
2023,03,28,11,34,11.30
2023,03,28,11,35,11.30
2023,03,28,11,36,11.30
2023,03,28,11,37,11.40
2023,03,28,11,38,11.30
2023,03,28,11,39,11.30
2023,03,28,11,40,11.40
2023,03,28,11,41,11.40
2023,03,28,11,42,11.40
2023,03,28,11,43,11.40
2023,03,28,11,44,11.30
2023,03,28,11,45,11.30
2023,03,28,11,46,11.30
2023,03,28,11,47,11.30
2023,03,28,11,48,11.30
2023,03,28,11,49,11.30
2023,03,28,11,50,11.30
2023,03,28,11,51,11.40
2023,03,28,11,52,11.40
2023,03,28,11,53,11.50
2023,03,28,11,54,11.50
2023,03,28,11,55,11.40
2023,03,28,11,56,11.40
2023,03,28,11,57,11.40
2023,03,28,11,58,11.40
2023,03,28,11,59,11.30
2023,03,28,12,00,11.30
2023,03,28,12,01,11.30
2023,03,28,12,02,11.30
2023,03,28,12,03,11.40
2023,03,28,12,04,11.40
2023,03,28,12,05,11.40
2023,03,28,12,06,11.40
2023,03,28,12,07,11.50
2023,03,28,12,08,11.50
2023,03,28,12,09,11.60
2023,03,28,12,10,11.60
2023,03,28,12,11,11.60
2023,03,28,12,12,11.60
2023,03,28,12,13,11.60
2023,03,28,12,14,11.70
2023,03,28,12,15,11.60
2023,03,28,12,16,11.60
2023,03,28,12,17,11.50
2023,03,28,12,18,11.50
2023,03,28,12,19,11.50
2023,03,28,12,20,11.40
2023,03,28,12,21,11.40
2023,03,28,12,22,11.40
2023,03,28,12,23,11.40
2023,03,28,12,24,11.40
2023,03,28,12,25,11.40
2023,03,28,12,26,11.40
2023,03,28,12,27,11.50
2023,03,28,12,28,11.50
2023,03,28,12,29,11.60
2023,03,28,12,30,11.60
2023,03,28,12,31,11.50
2023,03,28,12,32,11.40
2023,03,28,12,33,11.40
2023,03,28,12,34,11.40
2023,03,28,12,35,11.40
2023,03,28,12,36,11.50
2023,03,28,12,37,11.50
2023,03,28,12,38,11.60
2023,03,28,12,39,11.60
2023,03,28,12,40,11.60
2023,03,28,12,41,11.60
2023,03,28,12,42,11.60
2023,03,28,12,43,11.60
2023,03,28,12,44,11.60
2023,03,28,12,45,11.60
2023,03,28,12,46,11.60
2023,03,28,12,47,11.70
2023,03,28,12,48,11.80
2023,03,28,12,49,11.80
2023,03,28,12,50,11.90
2023,03,28,12,51,11.90
2023,03,28,12,52,11.90
2023,03,28,12,53,11.90
2023,03,28,12,54,11.90
2023,03,28,12,55,11.90
2023,03,28,12,56,11.90
2023,03,28,12,57,11.90
2023,03,28,12,58,12.00
2023,03,28,12,59,12.00
2023,03,28,13,00,12.10
2023,03,28,13,01,12.10
2023,03,28,13,02,12.10
2023,03,28,13,03,12.00
2023,03,28,13,04,12.00
2023,03,28,13,05,12.00
2023,03,28,13,06,12.10
2023,03,28,13,07,12.10
2023,03,28,13,08,12.10
2023,03,28,13,09,12.20
2023,03,28,13,10,12.20
2023,03,28,13,11,12.20
2023,03,28,13,12,12.20
2023,03,28,13,13,12.20
2023,03,28,13,14,12.20
2023,03,28,13,15,12.20
2023,03,28,13,16,12.30
2023,03,28,13,17,12.30
2023,03,28,13,18,12.40
2023,03,28,13,19,12.30
2023,03,28,13,20,12.30
2023,03,28,13,21,12.30
2023,03,28,13,22,12.30
2023,03,28,13,23,12.30
2023,03,28,13,24,12.30
2023,03,28,13,25,12.30
2023,03,28,13,26,12.30
2023,03,28,13,27,12.40
2023,03,28,13,28,12.40
2023,03,28,13,29,12.40
2023,03,28,13,30,12.50
2023,03,28,13,31,12.50
2023,03,28,13,32,12.50
2023,03,28,13,33,12.50
2023,03,28,13,34,12.50
2023,03,28,13,35,12.60
2023,03,28,13,36,12.60
2023,03,28,13,37,12.60
2023,03,28,13,38,12.60
2023,03,28,13,39,12.50
2023,03,28,13,40,12.50
2023,03,28,13,41,12.40
2023,03,28,13,42,12.40
2023,03,28,13,43,12.40
2023,03,28,13,44,12.40
2023,03,28,13,45,12.50
2023,03,28,13,46,12.50
2023,03,28,13,47,12.60
2023,03,28,13,48,12.60
2023,03,28,13,49,12.60
2023,03,28,13,50,12.60
2023,03,28,13,51,12.60
2023,03,28,13,52,12.60
2023,03,28,13,53,12.60
2023,03,28,13,54,12.60
2023,03,28,13,55,12.50
2023,03,28,13,56,12.50
2023,03,28,13,57,12.50
2023,03,28,13,58,12.50
2023,03,28,13,59,12.50
2023,03,28,14,00,12.50
2023,03,28,14,01,12.60
2023,03,28,14,02,12.60
2023,03,28,14,03,12.60
2023,03,28,14,04,12.60
2023,03,28,14,05,12.70
2023,03,28,14,06,12.70
2023,03,28,14,07,12.80
2023,03,28,14,08,12.90
2023,03,28,14,09,13.00
2023,03,28,14,10,13.00
2023,03,28,14,11,13.10
2023,03,28,14,12,13.20
2023,03,28,14,13,13.20
2023,03,28,14,14,13.20
2023,03,28,14,15,13.30
2023,03,28,14,16,13.30
2023,03,28,14,17,13.30
2023,03,28,14,18,13.30
2023,03,28,14,19,13.30
2023,03,28,14,20,13.40
2023,03,28,14,21,13.50
2023,03,28,14,22,13.50
2023,03,28,14,23,13.60
2023,03,28,14,24,13.50
2023,03,28,14,25,13.50
2023,03,28,14,26,13.50
2023,03,28,14,27,13.40
2023,03,28,14,28,13.40
2023,03,28,14,29,13.30
2023,03,28,14,30,13.30
2023,03,28,14,31,13.30
2023,03,28,14,32,13.30
2023,03,28,14,33,13.30
2023,03,28,14,34,13.30
2023,03,28,14,35,13.30
2023,03,28,14,36,13.30
2023,03,28,14,37,13.30
2023,03,28,14,38,13.40
2023,03,28,14,39,13.40
2023,03,28,14,40,13.50
2023,03,28,14,41,13.50
2023,03,28,14,42,13.50
2023,03,28,14,43,13.50
2023,03,28,14,44,13.50
2023,03,28,14,45,13.50
2023,03,28,14,46,13.50
2023,03,28,14,47,13.60
2023,03,28,14,48,13.60
2023,03,28,14,49,13.70
2023,03,28,14,50,13.80
2023,03,28,14,51,13.80
2023,03,28,14,52,13.90
2023,03,28,14,53,13.90
2023,03,28,14,54,13.90
2023,03,28,14,55,14.00
2023,03,28,14,56,14.00
2023,03,28,14,57,14.00
2023,03,28,14,58,13.90
2023,03,28,14,59,13.90
2023,03,28,15,00,13.80
2023,03,28,15,01,13.70
2023,03,28,15,02,13.70
2023,03,28,15,03,13.60
2023,03,28,15,04,13.60
2023,03,28,15,05,13.60
2023,03,28,15,06,13.50
2023,03,28,15,07,13.50
2023,03,28,15,08,13.50
2023,03,28,15,09,13.50
2023,03,28,15,10,13.60
2023,03,28,15,11,13.60
2023,03,28,15,12,13.80
2023,03,28,15,13,13.80
2023,03,28,15,14,13.90
2023,03,28,15,15,13.90
2023,03,28,15,16,14.00
2023,03,28,15,17,14.10
2023,03,28,15,18,14.20
2023,03,28,15,19,14.30
2023,03,28,15,20,14.30
2023,03,28,15,21,14.30
2023,03,28,15,22,14.40
2023,03,28,15,23,14.40
2023,03,28,15,24,14.40
2023,03,28,15,25,14.40
2023,03,28,15,26,14.40
2023,03,28,15,27,14.50
2023,03,28,15,28,14.40
2023,03,28,15,29,14.40
2023,03,28,15,30,14.40
2023,03,28,15,31,14.30
2023,03,28,15,32,14.20
2023,03,28,15,33,14.20
2023,03,28,15,34,14.20
2023,03,28,15,35,14.20
2023,03,28,15,36,14.10
2023,03,28,15,37,14.10
2023,03,28,15,38,14.10
2023,03,28,15,39,14.10
2023,03,28,15,40,14.20
2023,03,28,15,41,14.30
2023,03,28,15,42,14.30
2023,03,28,15,43,14.30
2023,03,28,15,44,14.30
2023,03,28,15,45,14.30
2023,03,28,15,46,14.30
2023,03,28,15,47,14.30
2023,03,28,15,48,14.30
2023,03,28,15,49,14.30
2023,03,28,15,50,14.30
2023,03,28,15,51,14.30
2023,03,28,15,52,14.30
2023,03,28,15,53,14.20
2023,03,28,15,54,14.20
2023,03,28,15,55,14.20
2023,03,28,15,56,14.30
2023,03,28,15,57,14.30
2023,03,28,15,58,14.30
2023,03,28,15,59,14.30
2023,03,28,16,00,14.30
2023,03,28,16,01,14.40
2023,03,28,16,02,14.40
2023,03,28,16,03,14.40
2023,03,28,16,04,14.50
2023,03,28,16,05,14.50
2023,03,28,16,06,14.50
2023,03,28,16,07,14.40
2023,03,28,16,08,14.40
2023,03,28,16,09,14.40
2023,03,28,16,10,14.30
2023,03,28,16,11,14.30
2023,03,28,16,12,14.30
2023,03,28,16,13,14.30
2023,03,28,16,14,14.30
2023,03,28,16,15,14.30
2023,03,28,16,16,14.30
2023,03,28,16,17,14.40
2023,03,28,16,18,14.40
2023,03,28,16,19,14.40
2023,03,28,16,20,14.40
2023,03,28,16,21,14.40
2023,03,28,16,22,14.50
2023,03,28,16,23,14.50
2023,03,28,16,24,14.40
2023,03,28,16,25,14.40
2023,03,28,16,26,14.40
2023,03,28,16,27,14.40
2023,03,28,16,28,14.50
2023,03,28,16,29,14.50
2023,03,28,16,30,14.50
2023,03,28,16,31,14.60
2023,03,28,16,32,14.60
2023,03,28,16,33,14.60
2023,03,28,16,34,14.60
2023,03,28,16,35,14.60
2023,03,28,16,36,14.70
2023,03,28,16,37,14.70
2023,03,28,16,38,14.80
2023,03,28,16,39,14.70
2023,03,28,16,40,14.70
2023,03,28,16,41,14.60
2023,03,28,16,42,14.50
2023,03,28,16,43,14.40
2023,03,28,16,44,14.30
2023,03,28,16,45,14.30
2023,03,28,16,46,14.30
2023,03,28,16,47,14.30
2023,03,28,16,48,14.30
2023,03,28,16,49,14.30
2023,03,28,16,50,14.30
2023,03,28,16,51,14.30
2023,03,28,16,52,14.30
2023,03,28,16,53,14.30
2023,03,28,16,54,14.30
2023,03,28,16,55,14.20
2023,03,28,16,56,14.20
2023,03,28,16,57,14.20
2023,03,28,16,58,14.10
2023,03,28,16,59,14.10
2023,03,28,17,00,14.10
2023,03,28,17,01,14.10
2023,03,28,17,02,14.10
2023,03,28,17,03,14.10
2023,03,28,17,04,14.10
2023,03,28,17,05,14.00
2023,03,28,17,06,14.00
2023,03,28,17,07,14.00
2023,03,28,17,08,14.00
2023,03,28,17,09,14.10
2023,03,28,17,10,14.10
2023,03,28,17,11,14.10
2023,03,28,17,12,14.10
2023,03,28,17,13,14.10
2023,03,28,17,14,14.10
2023,03,28,17,15,14.10
2023,03,28,17,16,14.10
2023,03,28,17,17,14.00
2023,03,28,17,18,14.00
2023,03,28,17,19,13.90
2023,03,28,17,20,13.90
2023,03,28,17,21,13.90
2023,03,28,17,22,13.90
2023,03,28,17,23,13.90
2023,03,28,17,24,13.90
2023,03,28,17,25,13.90
2023,03,28,17,26,13.90
2023,03,28,17,27,13.90
2023,03,28,17,28,13.90
2023,03,28,17,29,13.90
2023,03,28,17,30,13.90
2023,03,28,17,31,13.90
2023,03,28,17,32,13.90
2023,03,28,17,33,13.90
2023,03,28,17,34,13.90
2023,03,28,17,35,13.90
2023,03,28,17,36,13.90
2023,03,28,17,37,13.80
2023,03,28,17,38,13.80
2023,03,28,17,39,13.80
2023,03,28,17,40,13.80
2023,03,28,17,41,13.80
2023,03,28,17,42,13.80
2023,03,28,17,43,13.80
2023,03,28,17,44,13.80
2023,03,28,17,45,13.80
2023,03,28,17,46,13.80
2023,03,28,17,47,13.80
2023,03,28,17,48,13.80
2023,03,28,17,49,13.80
2023,03,28,17,50,13.80
2023,03,28,17,51,13.80
2023,03,28,17,52,13.80
2023,03,28,17,53,13.70
2023,03,28,17,54,13.70
2023,03,28,17,55,13.70
2023,03,28,17,56,13.70
2023,03,28,17,57,13.70
2023,03,28,17,58,13.70
2023,03,28,17,59,13.70
2023,03,28,18,00,13.70
2023,03,28,18,01,13.70
2023,03,28,18,02,13.70
2023,03,28,18,03,13.60
2023,03,28,18,04,13.60
2023,03,28,18,05,13.70
2023,03,28,18,06,13.70
2023,03,28,18,07,13.60
2023,03,28,18,08,13.60
2023,03,28,18,09,13.60
2023,03,28,18,10,13.60
2023,03,28,18,11,13.60
2023,03,28,18,12,13.60
2023,03,28,18,13,13.60
2023,03,28,18,14,13.60
2023,03,28,18,15,13.60
2023,03,28,18,16,13.60
2023,03,28,18,17,13.60
2023,03,28,18,18,13.60
2023,03,28,18,19,13.60
2023,03,28,18,20,13.60
2023,03,28,18,21,13.60
2023,03,28,18,22,13.60
2023,03,28,18,23,13.60
2023,03,28,18,24,13.50
2023,03,28,18,25,13.50
2023,03,28,18,26,13.50
2023,03,28,18,27,13.50
2023,03,28,18,28,13.50
2023,03,28,18,29,13.50
2023,03,28,18,30,13.40
2023,03,28,18,31,13.40
2023,03,28,18,32,13.40
2023,03,28,18,33,13.40
2023,03,28,18,34,13.40
2023,03,28,18,35,13.40
2023,03,28,18,36,13.40
2023,03,28,18,37,13.40
2023,03,28,18,38,13.50
2023,03,28,18,39,13.40
2023,03,28,18,40,13.40
2023,03,28,18,41,13.40
2023,03,28,18,42,13.40
2023,03,28,18,43,13.40
2023,03,28,18,44,13.40
2023,03,28,18,45,13.40
2023,03,28,18,46,13.40
2023,03,28,18,47,13.40
2023,03,28,18,48,13.30
2023,03,28,18,49,13.30
2023,03,28,18,50,13.30
2023,03,28,18,51,13.30
2023,03,28,18,52,13.30
2023,03,28,18,53,13.30
2023,03,28,18,54,13.30
2023,03,28,18,55,13.20
2023,03,28,18,56,13.20
2023,03,28,18,57,13.20
2023,03,28,18,58,13.10
2023,03,28,18,59,13.10
2023,03,28,19,00,13.10
2023,03,28,19,01,13.10
2023,03,28,19,02,13.10
2023,03,28,19,03,13.10
2023,03,28,19,04,13.10
2023,03,28,19,05,13.10
2023,03,28,19,06,13.10
2023,03,28,19,07,13.10
2023,03,28,19,08,13.10
2023,03,28,19,09,13.00
2023,03,28,19,10,13.00
2023,03,28,19,11,12.90
2023,03,28,19,12,12.90
2023,03,28,19,13,12.90
2023,03,28,19,14,12.90
2023,03,28,19,15,12.90
2023,03,28,19,16,12.90
2023,03,28,19,17,12.90
2023,03,28,19,18,12.90
2023,03,28,19,19,12.90
2023,03,28,19,20,12.90
2023,03,28,19,21,12.90
